CW1550 Weather Reports


Display with metric or nautical units.
time (UTC)temp
F
wind
direction
speed
MPH
gust
MPH
rain 1hr
in
rain 24hr
in
rain mn
in
humidity
%
barometer
mb
20260504050010 45 242 0.0 0.0 0.00 0.00 0.00 68 1013.6
20260504045505 45 242 0.0 1.0 0.00 0.00 0.00 68 1013.7
20260504045005 45 242 0.0 0.0 0.00 0.00 0.00 68 1013.7
20260504044505 46 242 0.0 0.0 0.00 0.00 0.00 68 1013.7
20260504044005 46 242 0.0 0.0 0.00 0.00 0.00 68 1013.7
20260504043506 46 242 0.0 0.0 0.00 0.00 0.00 67 1013.6
20260504043010 46 242 0.0 0.0 0.00 0.00 0.00 67 1013.5
20260504042505 46 242 0.0 2.0 0.00 0.00 0.00 67 1013.5
20260504042005 46 242 0.0 2.0 0.00 0.00 0.00 67 1013.5
20260504041504 46 242 1.0 2.0 0.00 0.00 0.00 67 1013.5
20260504041005 46 242 0.0 1.0 0.00 0.00 0.00 67 1013.4
20260504040505 46 242 0.0 2.0 0.00 0.00 0.00 67 1013.4
20260504040010 46 243 1.0 2.0 0.00 0.00 0.00 66 1013.4
20260504035505 46 243 1.0 2.0 0.00 0.00 0.00 67 1013.4
20260504035004 46 242 1.0 3.0 0.00 0.00 0.00 67 1013.3
20260504034504 46 239 0.0 1.0 0.00 0.00 0.00 66 1013.3
20260504034005 46 239 1.0 2.0 0.00 0.00 0.00 67 1013.3
20260504033504 46 241 0.0 3.0 0.00 0.00 0.00 67 1013.2
20260504032004 47 242 0.0 0.0 0.00 0.00 0.00 66 1013.1
20260504031504 47 242 0.0 0.0 0.00 0.00 0.00 66 1013.1
20260504031005 47 242 0.0 0.0 0.00 0.00 0.00 65 1013.0
20260504030505 47 242 0.0 0.0 0.00 0.00 0.00 65 1013.0
20260504030010 48 242 0.0 0.0 0.00 0.00 0.00 64 1013.0
20260504025505 48 242 0.0 0.0 0.00 0.00 0.00 64 1013.1
20260504025005 48 242 0.0 0.0 0.00 0.00 0.00 62 1013.1
20260504024005 49 242 0.0 0.0 0.00 0.00 0.00 60 1013.0
20260504023504 49 242 0.0 0.0 0.00 0.00 0.00 59 1013.0
20260504023010 49 242 0.0 0.0 0.00 0.00 0.00 58 1013.0
20260504022505 49 242 0.0 0.0 0.00 0.00 0.00 59 1013.1
20260504022005 49 242 0.0 0.0 0.00 0.00 0.00 58 1013.0
20260504021505 50 242 0.0 0.0 0.00 0.00 0.00 57 1013.0
20260504021004 50 242 0.0 0.0 0.00 0.00 0.00 57 1013.0
20260504020505 50 242 0.0 0.0 0.00 0.00 0.00 57 1013.0
20260504020010 50 242 0.0 0.0 0.00 0.00 0.00 56 1012.9
20260504015505 50 242 0.0 0.0 0.00 0.00 0.00 56 1012.9
20260504015006 51 242 0.0 0.0 0.00 0.00 0.00 56 1012.8
20260504014005 51 242 0.0 0.0 0.00 0.00 0.00 53 1012.9
20260504013504 52 242 0.0 0.0 0.00 0.00 0.00 51 1012.8
20260504013010 52 242 0.0 0.0 0.00 0.00 0.00 51 1012.8
20260504012504 52 242 0.0 0.0 0.00 0.00 0.00 52 1012.8
20260504012004 52 242 0.0 0.0 0.00 0.00 0.00 52 1012.8
20260504011505 53 242 0.0 0.0 0.00 0.00 0.00 50 1012.7
20260504010505 53 242 0.0 0.0 0.00 0.00 0.00 47 1012.6
20260504010010 54 242 0.0 0.0 0.00 0.00 0.00 49 1012.7
20260504005504 54 242 0.0 0.0 0.00 0.00 0.00 46 1012.6
20260504005004 54 242 0.0 0.0 0.00 0.00 0.00 46 1012.5
20260504004504 54 242 0.0 0.0 0.00 0.00 0.00 45 1012.4
20260504003504 55 242 0.0 1.0 0.00 0.00 0.00 43 1012.3
20260504003009 55 242 1.0 2.0 0.00 0.00 0.00 42 1012.4
20260504002005 56 242 0.0 0.0 0.00 0.00 0.00 43 1012.3
20260504001504 56 242 0.0 0.0 0.00 0.00 0.00 41 1012.1
20260504001004 57 242 0.0 0.0 0.00 0.00 0.00 40 1012.1
20260504000505 57 242 0.0 0.0 0.00 0.00 0.00 40 1012.1
20260503235004 59 242 1.0 3.0 0.00 0.00 0.00 37 1012.0
20260503234004 59 233 3.0 5.0 0.00 0.00 0.00 35 1011.9
20260503233504 59 274 0.0 2.0 0.00 0.00 0.00 36 1011.8
20260503233010 60 274 0.0 1.0 0.00 0.00 0.00 37 1011.7
20260503232504 60 274 1.0 1.0 0.00 0.00 0.00 36 1011.7
20260503232005 61 274 2.0 3.0 0.00 0.00 0.00 34 1011.6
20260503231004 61 278 0.0 3.0 0.00 0.00 0.00 34 1011.6
20260503230010 62 152 2.0 6.0 0.00 0.00 0.00 33 1011.7
20260503225504 62 260 1.0 2.0 0.00 0.00 0.00 32 1011.7
20260503225005 62 261 2.0 5.0 0.00 0.00 0.00 31 1011.6
20260503224504 62 235 2.0 9.0 0.00 0.00 0.00 30 1011.7
20260503224005 63 294 4.0 10.0 0.00 0.00 0.00 30 1011.8
20260503223505 63 349 1.0 3.0 0.00 0.00 0.00 32 1011.7
20260503223011 63 11 2.0 7.0 0.00 0.00 0.00 31 1011.6
20260503222505 63 282 8.0 13.0 0.00 0.00 0.00 29 1011.7
20260503221505 64 274 3.0 10.0 0.00 0.00 0.00 29 1011.7
20260503221004 64 268 3.0 7.0 0.00 0.00 0.00 28 1011.7
20260503220504 65 314 2.0 6.0 0.00 0.00 0.00 29 1011.7
20260503220010 65 170 3.0 7.0 0.00 0.00 0.00 28 1011.6
20260503215505 65 211 2.0 12.0 0.00 0.00 0.00 28 1011.7
20260503215004 65 273 6.0 10.0 0.00 0.00 0.00 27 1011.6
20260503214505 65 325 6.0 9.0 0.00 0.00 0.00 28 1011.6
20260503214004 65 336 6.0 12.0 0.00 0.00 0.00 27 1011.7
20260503213009 65 287 9.0 13.0 0.00 0.00 0.00 27 1011.6
20260503212504 65 349 9.0 12.0 0.00 0.00 0.00 27 1011.5
20260503212004 65 352 6.0 16.0 0.00 0.00 0.00 28 1011.6
20260503211005 65 229 7.0 13.0 0.00 0.00 0.00 28 1011.5
20260503210504 65 245 6.0 13.0 0.00 0.00 0.00 28 1011.5
20260503210010 65 216 3.0 6.0 0.00 0.00 0.00 29 1011.7
20260503205005 65 339 4.0 18.0 0.00 0.00 0.00 28 1011.7
20260503204504 65 265 3.0 10.0 0.00 0.00 0.00 30 1011.7
20260503204004 64 276 3.0 13.0 0.00 0.00 0.00 31 1011.9
20260503203504 64 245 4.0 20.0 0.00 0.00 0.00 29 1011.8
20260503203011 64 327 10.0 20.0 0.00 0.00 0.00 29 1011.9
20260503202504 64 297 6.0 14.0 0.00 0.00 0.00 29 1012.0
20260503200010 63 262 7.0 18.0 0.00 0.00 0.00 32 1012.1
20260503194504 62 236 7.0 14.0 0.00 0.00 0.00 31 1012.4
20260503194004 62 335 7.0 15.0 0.00 0.00 0.00 32 1012.6
20260503193505 62 291 6.0 15.0 0.00 0.00 0.00 35 1012.6
20260503193010 61 187 4.0 10.0 0.00 0.00 0.00 34 1012.6
20260503192504 61 280 6.0 15.0 0.00 0.00 0.00 32 1012.7
20260503192004 62 277 6.0 15.0 0.00 0.00 0.00 32 1012.8
20260503191504 63 237 7.0 13.0 0.00 0.00 0.00 31 1012.8
20260503190504 63 305 9.0 15.0 0.00 0.00 0.00 32 1012.9
20260503185504 62 295 5.0 10.0 0.00 0.00 0.00 32 1013.0
20260503185004 62 307 7.0 16.0 0.00 0.00 0.00 32 1013.0
20260503184504 62 316 9.0 17.0 0.00 0.00 0.00 32 1013.1
20260503184005 62 330 8.0 13.0 0.00 0.00 0.00 33 1013.1
20260503183504 62 233 9.0 16.0 0.00 0.00 0.00 32 1013.2
20260503183009 62 290 9.0 14.0 0.00 0.00 0.00 33 1013.2
20260503182505 61 15 6.0 13.0 0.00 0.00 0.00 34 1013.3
20260503182006 60 314 5.0 12.0 0.00 0.00 0.00 33 1013.5
20260503181505 60 41 7.0 17.0 0.00 0.00 0.00 33 1013.4
20260503181004 60 324 12.0 22.0 0.00 0.00 0.00 33 1013.6
20260503180504 60 260 8.0 16.0 0.00 0.00 0.00 32 1013.5
20260503180009 60 299 6.0 17.0 0.00 0.00 0.00 36 1013.5
20260503175004 60 310 9.0 17.0 0.00 0.00 0.00 35 1013.7
20260503174504 60 314 11.0 15.0 0.00 0.00 0.00 34 1013.7
20260503174004 60 347 10.0 15.0 0.00 0.00 0.00 34 1013.8
20260503173504 60 338 5.0 9.0 0.00 0.00 0.00 36 1013.8
20260503173011 60 294 5.0 16.0 0.00 0.00 0.00 34 1013.7
20260503172504 59 343 11.0 17.0 0.00 0.00 0.00 34 1013.7
20260503172004 59 258 5.0 10.0 0.00 0.00 0.00 36 1013.7
20260503171504 59 339 6.0 13.0 0.00 0.00 0.00 35 1013.8
20260503151004 54 307 9.0 13.0 0.00 0.00 0.00 38 1014.4
20260503150504 54 282 11.0 21.0 0.00 0.00 0.00 37 1014.4
20260503131006 48 339 10.0 20.0 0.00 0.00 0.00 51 1014.7
20260503130506 48 327 11.0 18.0 0.00 0.00 0.00 51 1014.9
20260503110505 42 300 4.0 9.0 0.00 0.00 0.00 67 1013.8
20260503090504 41 323 2.0 8.0 0.00 0.00 0.00 71 1012.3
20260503081505 42 324 0.0 2.0 0.00 0.00 0.00 71 1012.0
20260503080505 42 286 1.0 8.0 0.00 0.00 0.00 71 1011.9
20260503072505 42 289 4.0 8.0 0.00 0.00 0.00 71 1011.5
20260503071506 42 305 0.0 9.0 0.00 0.00 0.00 71 1011.4
20260503071006 42 336 1.0 7.0 0.00 0.00 0.00 71 1011.4
20260503070505 43 266 1.0 8.0 0.00 0.00 0.00 71 1011.5